Wind from 315

Air temperature 11.7° C
Dewpoint -11.2° C

Last reported at 2014-Apr-23 18:44 UTC.
Time now 2014-Apr-23 19:12 UTC

Location: N 59°07' E 009°39'.
View on Google Maps.

See reports from other nearby stations

Tides Stations Pressure Air Temp Water Temp Dewpoint Dewpoint depression Visibility Wind Speed Wind Dir Waves Ship positions

  
sailing weather and tide predictions

CW9944 Porsgrunn NO weather

date/time (UTC)wind fromknots sea level pressurealtimeterstation pressurevisibilityair tempwater tempwave heightnotes
2014-Apr-23 18:44 315 11.7
2014-Apr-23 18:34 11.7
2014-Apr-23 18:24 292 0 gusting 1 11.7
2014-Apr-23 18:14 304 1 gusting 4 12.2
2014-Apr-23 18:04 316 0 gusting 6 12.2
2014-Apr-23 17:54 338 2 gusting 6 12.2
2014-Apr-23 17:44 323 4 gusting 6 12.2
2014-Apr-23 17:34 349 12.8
2014-Apr-23 17:24 12.8
2014-Apr-23 17:14 13.3
2014-Apr-23 17:04 007 0 gusting 2 13.3
2014-Apr-23 16:54 13.3
2014-Apr-23 16:44 338 2 gusting 2 13.9
2014-Apr-23 16:34 352 2 gusting 2 14.4
2014-Apr-23 16:24 14.4
2014-Apr-23 16:14 315 2 gusting 6 15.0
2014-Apr-23 16:04 303 4 gusting 7 15.6
2014-Apr-23 15:54 315 2 gusting 7 15.6
2014-Apr-23 15:44 338 1 gusting 5 15.6
2014-Apr-23 15:34 338 4 gusting 7 16.1
2014-Apr-23 15:24 317 3 gusting 7 16.7
2014-Apr-23 15:14 248 5 gusting 6 16.7
2014-Apr-23 15:04 102 1 gusting 8 16.7
2014-Apr-23 14:54 338 4 gusting 6 17.2
2014-Apr-23 14:44 248 0 gusting 4 17.2
2014-Apr-23 14:34 274 5 gusting 6 17.2
2014-Apr-23 14:24 068 17.2
2014-Apr-23 14:14 270 0 gusting 6 17.2
2014-Apr-23 14:04 270 0 gusting 2 17.2
2014-Apr-23 13:54 248 0 gusting 6 17.2
2014-Apr-23 13:44 292 6 gusting 6 17.2
2014-Apr-23 13:34 17.2
2014-Apr-23 13:24 270 7 gusting 13 17.2
2014-Apr-23 13:14 315 6 gusting 11 17.2
2014-Apr-23 13:04 279 0 gusting 5 17.2
2014-Apr-23 12:54 225 2 gusting 4 17.2
2014-Apr-23 12:44 292 4 gusting 6 17.2
2014-Apr-23 12:34 270 5 gusting 5 17.2
2014-Apr-23 12:24 002 4 gusting 7 17.2
2014-Apr-23 12:14 315 4 gusting 5 16.7
2014-Apr-23 12:04 287 5 gusting 6 16.7
2014-Apr-23 11:54 345 3 gusting 8 16.1
2014-Apr-23 11:44 315 8 gusting 8 16.1
2014-Apr-23 11:34 328 4 gusting 6 16.1
2014-Apr-23 11:24 258 0 gusting 10 16.1
2014-Apr-23 11:14 089 6 gusting 6 15.6
2014-Apr-23 11:04 289 2 gusting 2 15.6
2014-Apr-23 10:54 274 3 gusting 6 15.0
2014-Apr-23 10:44 315 6 gusting 7 14.4
2014-Apr-23 10:34 248 6 gusting 7 13.9
2014-Apr-23 10:24 192 1 gusting 2 13.9
2014-Apr-23 10:14 248 5 gusting 7 13.9
2014-Apr-23 10:04 238 3 gusting 4 13.9
2014-Apr-23 09:54 268 14.4
2014-Apr-23 09:44 248 4 gusting 4 14.4
2014-Apr-23 09:34 314 0 gusting 6 14.4
2014-Apr-23 09:24 291 4 gusting 6 14.4
2014-Apr-23 09:14 292 2 gusting 4 15.0
2014-Apr-23 09:04 202 2 gusting 4 15.0
2014-Apr-23 08:54 275 0 gusting 6 14.4
2014-Apr-23 08:44 248 13.9
2014-Apr-23 08:34 197 4 gusting 7 13.3
2014-Apr-22 19:34 338 12.8
2014-Apr-22 19:24 338 13.3
2014-Apr-22 19:14 13.9
2014-Apr-22 19:04 338 14.4
2014-Apr-22 18:54 338 15.0
2014-Apr-22 18:44 022 15.6
2014-Apr-22 18:34 16.1
2014-Apr-22 18:24 315 16.7
2014-Apr-22 18:14 353 16.7
2014-Apr-22 18:04 17.2
2014-Apr-22 17:54 337 17.8
2014-Apr-22 17:44 18.3
2014-Apr-22 17:34 18.3
2014-Apr-22 17:24 315 2 gusting 6 18.9
2014-Apr-22 17:14 352 0 gusting 4 18.9
2014-Apr-22 17:04 338 5 gusting 6 18.9
2014-Apr-22 16:54 19.4
2014-Apr-22 16:44 045 2 gusting 4 19.4
2014-Apr-22 16:34 338 1 gusting 4 19.4
2014-Apr-22 16:24 316 5 gusting 6 19.4
2014-Apr-22 16:04 327 0 gusting 4 20.0
2014-Apr-22 15:54 20.0
2014-Apr-22 15:44 338 2 gusting 6 20.0
2014-Apr-22 15:34 270 4 gusting 5 20.0
2014-Apr-22 15:24 292 6 gusting 12 20.6
2014-Apr-22 15:14 352 1 gusting 4 20.6
2014-Apr-22 15:04 338 4 gusting 5 20.6
2014-Apr-22 14:54 022 21.1
2014-Apr-22 14:44 310 4 gusting 5 21.1
2014-Apr-22 14:34 296 1 gusting 1 21.1
2014-Apr-22 14:24 039 0 gusting 5 21.1
2014-Apr-22 14:14 317 0 gusting 7 21.1
2014-Apr-22 14:04 334 4 gusting 7 21.1
2014-Apr-22 13:54 248 4 gusting 5 21.1
2014-Apr-22 13:44 311 5 gusting 10 21.1
2014-Apr-22 13:34 205 5 gusting 6 21.7
2014-Apr-22 13:24 248 0 gusting 2 21.1
2014-Apr-22 13:14 180 1 gusting 6 21.1
2014-Apr-22 13:04 020 0 gusting 6 21.1
2014-Apr-22 12:54 248 6 gusting 8 21.1
2014-Apr-22 12:44 319 4 gusting 4 21.1
2014-Apr-22 12:34 315 2 gusting 7 21.1
2014-Apr-22 12:24 248 3 gusting 8 21.1
2014-Apr-22 12:14 248 2 gusting 6 21.7
2014-Apr-22 12:04 249 0 gusting 6 21.7
2014-Apr-22 11:54 270 1 gusting 6 21.7
2014-Apr-22 11:44 21.1
2014-Apr-22 11:34 285 7 gusting 7 21.1
2014-Apr-22 11:24 313 3 gusting 6 21.1
2014-Apr-22 11:14 248 6 gusting 7 20.6
2014-Apr-22 11:04 242 8 gusting 8 20.6
2014-Apr-22 10:54 248 5 gusting 13 20.6
2014-Apr-22 10:44 292 6 gusting 10 20.6
2014-Apr-22 10:34 286 4 gusting 6 20.6
2014-Apr-22 10:24 202 1 gusting 5 20.6
2014-Apr-22 10:14 292 2 gusting 4 20.6
2014-Apr-22 10:04 275 20.6
2014-Apr-22 09:54 180 20.6
2014-Apr-22 09:44 090 1 gusting 2 20.0
2014-Apr-22 09:34 238 2 gusting 5 20.0
2014-Apr-22 09:24 241 0 gusting 5 19.4
2014-Apr-22 09:14 248 3 gusting 6 19.4
2014-Apr-22 09:04 281 5 gusting 6 18.9
2014-Apr-22 08:54 225 1 gusting 5 18.9
2014-Apr-22 08:44 310 2 gusting 2 18.3
2014-Apr-22 08:34 195 0 gusting 6 18.3
2014-Apr-22 08:24 225 0 gusting 4 18.3
2014-Apr-22 08:14 270 17.8
2014-Apr-22 08:04 274 17.8
2014-Apr-22 07:54 158 1 gusting 2 17.8
2014-Apr-22 07:44 225 5 gusting 6 17.8
2014-Apr-22 07:34 158 3 gusting 6 17.2
2014-Apr-22 07:24 180 0 gusting 4 17.2
2014-Apr-22 07:14 292 16.7
2014-Apr-22 07:04 186 0 gusting 4 16.7
2014-Apr-22 06:54 211 0 gusting 5 16.1
2014-Apr-22 06:44 270 0 gusting 2 15.6
2014-Apr-22 06:34 229 2 gusting 4 14.4
2014-Apr-22 06:24 326 13.9
2014-Apr-22 06:14 202 2 gusting 2 12.8
2014-Apr-22 06:04 228 4 gusting 4 12.2
2014-Apr-22 05:54 223 1 gusting 2 11.7
2014-Apr-22 05:44 248 0 gusting 2 11.1
2014-Apr-22 05:34 248 1 gusting 2 10.6
2014-Apr-22 05:24 270 2 gusting 2 10.6
2014-Apr-22 05:14 270 10.0
2014-Apr-22 05:04 225 1 gusting 7 10.0
2014-Apr-22 04:54 225 1 gusting 1 10.0
2014-Apr-22 04:44 225 0 gusting 4 10.0
2014-Apr-22 04:34 263 0 gusting 4 10.0
2014-Apr-22 04:24 248 2 gusting 4 10.0
2014-Apr-22 04:14 202 10.0
2014-Apr-22 04:04 248 1 gusting 4 10.0
2014-Apr-22 03:54 202 1 gusting 4 10.0
2014-Apr-22 03:44 270 3 gusting 4 9.4
2014-Apr-22 03:34 247 9.4
2014-Apr-22 03:24 259 10.0
2014-Apr-22 03:14 248 1 gusting 2 10.0
2014-Apr-22 03:04 219 1 gusting 2 10.0
2014-Apr-22 02:54 225 1 gusting 2 10.0
2014-Apr-22 02:44 225 0 gusting 5 10.0
2014-Apr-22 02:34 259 4 gusting 4 10.0
2014-Apr-22 02:24 225 0 gusting 2 10.0
2014-Apr-22 02:14 225 1 gusting 1 10.0
2014-Apr-22 02:04 244 10.0
2014-Apr-22 01:54 225 10.0
2014-Apr-22 01:44 202 0 gusting 0 10.0
2014-Apr-22 01:34 227 10.0
2014-Apr-22 01:24 225 0 gusting 1 10.6
2014-Apr-22 01:14 225 0 gusting 1 10.6
2014-Apr-22 01:04 241 0 gusting 5 10.6
2014-Apr-22 00:54 225 4 gusting 4 10.6
2014-Apr-22 00:44 248 0 gusting 2 10.6
2014-Apr-22 00:34 270 10.6
2014-Apr-22 00:24 247 10.6
2014-Apr-22 00:14 230 1 gusting 2 10.6
2014-Apr-22 00:04 248 1 gusting 1 10.6
2014-Apr-21 23:54 248 10.6
2014-Apr-21 23:44 225 0 gusting 0 11.1
2014-Apr-21 23:34 263 0 gusting 2 11.1
2014-Apr-21 23:24 208 11.1
2014-Apr-21 23:14 225 1 gusting 1 11.1
2014-Apr-21 23:04 225 2 gusting 2 11.1
2014-Apr-21 22:54 249 2 gusting 2 10.6
2014-Apr-21 22:44 225 0 gusting 2 10.6
2014-Apr-21 22:34 248 10.6
2014-Apr-21 22:24 248 0 gusting 0 11.1
2014-Apr-21 22:14 270 0 gusting 0 11.1
2014-Apr-21 22:04 259 11.1
2014-Apr-21 21:54 301 1 gusting 1 11.1
2014-Apr-21 21:44 270 11.1
2014-Apr-21 21:34 248 11.1
2014-Apr-21 21:24 315 11.1
2014-Apr-21 21:14 292 11.7
2014-Apr-21 21:04 254 1 gusting 1 11.1
2014-Apr-21 20:54 270 11.7
2014-Apr-21 20:44 315 11.7
2014-Apr-21 20:34 315 12.2
2014-Apr-21 20:24 316 12.2
2014-Apr-21 20:14 270 12.8
2014-Apr-21 20:04 303 13.3
2014-Apr-21 19:54 315 13.9
2014-Apr-21 19:44 315 14.4
2014-Apr-21 19:34 282 14.4
2014-Apr-21 19:24 270 15.0
2014-Apr-21 19:14 270 15.6
2014-Apr-21 19:04 270 15.6